Canberra, Australia

1:48 AM AEDT on March 28, 2017 (GMT +1100)
Canberra

Weather History for 94926 - August, 2013

Change the Weather History Date:

Friday, August 9, 2013

  Actual Average Record
Temperature  
Mean Temperature 38 °F -  
Max Temperature 50 °F 57 °F - ()
Min Temperature 26 °F 35 °F - ()
Degree Days  
Heating Degree Days 27    
Moisture  
Dew Point 34 °F    
Average Humidity 83    
Maximum Humidity 100    
Minimum Humidity 58    
Precipitation  
Precipitation 0.00 in 0.07 in - ()
Sea Level Pressure  
Sea Level Pressure 30.02 in    
Wind  
Wind Speed 5 mph ()    
Max Wind Speed 18 mph    
Max Gust Speed -    
Visibility 6.1 miles    
Events Rain    
T = Trace of Precipitation, MM = Missing Value Source: Averaged Metar Reports

Daily Weather History Graph

Daily Weather History Graph

Search for Another Location

Airport or City:

Trip Planner

Search our weather history database for the weather conditions in past years. The results will help you decide how hot, cold, wet, or windy it might be!

Date:

Astronomy

Aug. 09, 2013 Rise Set
Actual Time 6:51 AM AEST 5:26 PM AEST
Civil Twilight 6:24 AM AEST 5:53 PM AEST
Nautical Twilight 5:54 AM AEST 6:23 PM AEST
Astronomical Twilight 5:24 AM AEST 6:53 PM AEST
Moon 7:41 AM AEST (8/9) 7:45 PM AEST (8/9)
Length of Visible Light 11h 28m
Length of Day
10h 35m
Waxing Crescent, 5% of the Moon is Illuminated
Aug 9
Waxing Crescent
Aug 14
First Quarter
Aug 21
Full
Aug 28
Last Quarter
Sep 5
New

Hourly Weather History & Observations

Time (AEST) Temp. Windchill Dew Point Humidity Pressure Visibility Wind Dir Wind Speed Gust Speed Precip Events Conditions
12:00 AM 30 °F - 29 °F 94% 30.09 in - South 2.3 mph - -  
12:00 AM 30.2 °F - 28.4 °F 93% 30.04 in 6.2 mi South 2.3 mph - N/A   Unknown
12:30 AM 30.2 °F - 28.4 °F 93% 30.04 in 6.2 mi Calm Calm - N/A   Unknown
1:00 AM 29 °F - 28 °F 92% 30.07 in - Calm Calm - -  
1:00 AM 28.4 °F - 26.6 °F 93% 30.04 in 6.2 mi Calm Calm - N/A   Unknown
1:30 AM 26.6 °F - 24.8 °F 93% 30.04 in 6.2 mi Calm Calm - N/A   Unknown
2:00 AM 28.4 °F - 28.4 °F 100% 30.04 in 6.2 mi WNW 1.2 mph - N/A   Unknown
2:30 AM 28.4 °F 23.3 °F 26.6 °F 93% 30.04 in 6.2 mi North 4.6 mph - N/A   Unknown
3:00 AM 29 °F - 28 °F 96% 30.07 in - Calm Calm - -   Overcast
3:00 AM 28.4 °F - 28.4 °F 100% 30.04 in 6.2 mi Calm Calm - N/A   Scattered Clouds
3:30 AM 26.6 °F - 26.6 °F 100% 30.04 in 6.2 mi Calm Calm - N/A   Unknown
4:00 AM 28 °F - 27 °F 95% 30.06 in - Calm Calm - -  
4:00 AM 28.4 °F - 26.6 °F 93% 30.04 in 6.2 mi Calm Calm - N/A   Unknown
4:30 AM 26.6 °F 21.2 °F 26.6 °F 100% 30.04 in 6.2 mi SSE 4.6 mph - N/A   Partly Cloudy
5:00 AM 28.4 °F - 28.4 °F 100% 30.04 in 6.2 mi SE 1.2 mph - N/A   Partly Cloudy
5:30 AM 28.4 °F - 28.4 °F 100% 30.04 in 6.2 mi Calm Calm - N/A   Partly Cloudy
6:00 AM 28 °F - 27 °F 92% 30.09 in - ESE 2.3 mph - -  
6:00 AM 26.6 °F - 26.6 °F 100% 30.04 in - ESE 2.3 mph - N/A   Clear
6:30 AM 28.4 °F - 28.4 °F 100% 30.04 in 5.0 mi Calm Calm - N/A   Haze
7:00 AM 28 °F - 27 °F 92% 30.09 in - SE 3.5 mph - -  
7:00 AM 26.6 °F 22.6 °F 26.6 °F 100% 30.06 in 5.6 mi SE 3.5 mph - N/A   Haze
7:30 AM 30.2 °F - 30.2 °F 100% 30.06 in 5.6 mi Calm Calm - N/A   Haze
8:00 AM 32.0 °F - 32.0 °F 100% 30.06 in 5.6 mi North 2.3 mph - N/A   Haze
8:30 AM 33.8 °F - 33.8 °F 100% 30.06 in 5.6 mi Calm Calm - N/A   Haze
9:00 AM 37 °F - 37 °F 100% 30.10 in - Calm Calm - -  
9:00 AM 37.4 °F - 37.4 °F 100% 30.06 in 5.6 mi Calm Calm - N/A   Haze
9:30 AM 42.8 °F - 41.0 °F 93% 30.06 in 6.2 mi East 1.2 mph - N/A   Mostly Cloudy
10:00 AM 45 °F - 38 °F 70% 30.08 in - West 3.5 mph - -  
10:00 AM 44.6 °F 43.1 °F 39.2 °F 81% 30.04 in 6.2 mi West 3.5 mph - N/A   Mostly Cloudy
10:30 AM 50.0 °F - 39.2 °F 66% 30.04 in 6.2 mi NNW 11.5 mph - N/A   Mostly Cloudy
11:00 AM 50.0 °F - 35.6 °F 58% 30.04 in 6.2 mi NW 9.2 mph - N/A   Mostly Cloudy
11:30 AM 48.2 °F - 37.4 °F 66% 30.01 in 6.2 mi NNW 12.7 mph - N/A   Mostly Cloudy
12:00 PM 47 °F - 38 °F 63% 30.04 in - North 13.8 mph - -  
12:00 PM 46.4 °F 40.4 °F 39.2 °F 76% 30.01 in 6.2 mi North 13.8 mph - N/A   Mostly Cloudy
12:30 PM 46.4 °F 40.4 °F 39.2 °F 76% 29.98 in 6.2 mi North 13.8 mph - N/A   Mostly Cloudy
1:00 PM 46 °F - 39 °F 68% 30.02 in - North 11.5 mph - -  
1:00 PM 46.4 °F 41.1 °F 39.2 °F 76% 29.98 in 6.2 mi North 11.5 mph - N/A   Mostly Cloudy
1:30 PM 46.4 °F 40.7 °F 41.0 °F 81% 29.98 in 6.2 mi North 12.7 mph - N/A   Mostly Cloudy
2:00 PM 46.4 °F 40.4 °F 39.2 °F 76% 29.98 in 6.2 mi NNW 13.8 mph - N/A Rain Light Rain
2:30 PM 46.4 °F 41.1 °F 39.2 °F 76% 29.98 in 6.2 mi North 11.5 mph - N/A   Mostly Cloudy
3:00 PM 46 °F - 38 °F 63% 29.99 in - North 11.5 mph - -   Overcast
3:00 PM 46.4 °F 41.1 °F 37.4 °F 71% 29.95 in 6.2 mi North 11.5 mph - N/A   Mostly Cloudy
3:30 PM 46.4 °F 40.7 °F 37.4 °F 71% 29.95 in 6.2 mi North 12.7 mph - N/A   Mostly Cloudy
4:00 PM 46 °F - 37 °F 62% 29.99 in - NNW 13.8 mph - -  
4:00 PM 46.4 °F 40.4 °F 37.4 °F 71% 29.95 in 6.2 mi NNW 13.8 mph - N/A   Mostly Cloudy
4:30 PM 46.4 °F 40.1 °F 37.4 °F 71% 29.95 in 6.2 mi NNW 15.0 mph - N/A   Scattered Clouds
5:00 PM 46.4 °F 40.1 °F 37.4 °F 71% 29.95 in 6.2 mi NNW 15.0 mph - N/A   Mostly Cloudy
5:30 PM 46.4 °F 39.2 °F 37.4 °F 71% 29.95 in 6.2 mi NW 18.4 mph - N/A   Scattered Clouds
6:00 PM 46 °F - 37 °F 62% 30.01 in - NNW 17.3 mph - -   Overcast
6:00 PM 46.4 °F 39.5 °F 37.4 °F 71% 29.98 in 6.2 mi NNW 17.3 mph - N/A   Scattered Clouds
6:30 PM 46.4 °F 39.5 °F 37.4 °F 71% 29.98 in 6.2 mi NNW 17.3 mph - N/A   Scattered Clouds
7:00 PM 45 °F - 37 °F 64% 30.01 in - NW 13.8 mph - -  
7:00 PM 44.6 °F 38.1 °F 37.4 °F 76% 29.98 in 6.2 mi NW 13.8 mph - N/A   Scattered Clouds
7:30 PM 42.8 °F 36.2 °F 37.4 °F 81% 29.98 in 6.2 mi NNW 12.7 mph - N/A   Scattered Clouds
8:00 PM 44.6 °F 37.8 °F 39.2 °F 81% 29.98 in 6.2 mi North 15.0 mph - N/A   Partly Cloudy
8:30 PM 42.8 °F 36.2 °F 39.2 °F 87% 29.98 in 6.2 mi North 12.7 mph - N/A   Partly Cloudy
9:00 PM 43 °F - 38 °F 77% 30.01 in - North 10.4 mph - -   Overcast
9:00 PM 42.8 °F 37.0 °F 37.4 °F 81% 29.98 in 6.2 mi North 10.4 mph - N/A   Mostly Cloudy
9:30 PM 44.6 °F 39.7 °F 39.2 °F 81% 29.98 in 6.2 mi NNW 9.2 mph - N/A   Overcast
10:00 PM 45 °F - 38 °F 68% 30.03 in - North 6.9 mph - -  
10:00 PM 44.6 °F 40.7 °F 37.4 °F 76% 29.98 in 6.2 mi North 6.9 mph - N/A   Overcast
10:30 PM 44.6 °F 39.7 °F 37.4 °F 76% 29.98 in 6.2 mi North 9.2 mph - N/A   Overcast
11:00 PM 44.6 °F 39.7 °F 37.4 °F 76% 29.98 in 6.2 mi North 9.2 mph - N/A   Overcast
11:30 PM 44.6 °F 38.8 °F 37.4 °F 76% 29.98 in 6.2 mi North 11.5 mph - N/A   Overcast